IRIDE-MS2-HEO-5

operational
NORAD ID: 64571 Int'l Des: 2025-135 Owner: ASI/ARGOT Country: I
LEOCIRCULARRETROGRADESSO

About IRIDE-MS2-HEO-5

Description loading...

Live Position

Loading 3D Globe...

Upcoming Passes

Altitude History

Altitude vs Time

uPlot chart will show altitude changes over time

Two-Line Element Set

1 64571U 25135AV 25315.31765044 .00004920 00000-0 48305-3 0 9993
2 64571 97.7572 67.3829 0002070 344.0117 16.1037 14.92633979 21370
Epoch: Nov 11, 2025 • Age: 13 hours

Current Status

Altitude 615.0 km
Velocity 7.55 km/s
Sub-Earth Point -70.11°S, 96.05°E
Launch Date Jun 23, 2025
Age 0.3 years
Type other

Technical Details

Classification Payload
Mass 65.00 kg
Dry Mass 65.00 kg
Total Mass 65.00 kg
Length 0.70 m
Diameter 0.50 m
Span 2.00 m
Shape Box+2 pan
Manufacturer ARGOT
Bus Type HAWK
Phase Status In Orbit
Owner/State ASI/ARGOT/I

Large Constellations

Loading constellations...